WB2COY Weather Reports


Display with metric or nautical units.
time (UTC)temp
F
wind
direction
speed
MPH
gust
MPH
rain 1hr
in
rain 24hr
in
rain mn
in
humidity
%
barometer
mb
20260905083016 60 0.0 0.0 0.00 0.00 0.00 81 1010.1
20260905080037 60 0.0 0.0 0.00 0.00 0.00 81 1010.2
20260905073016 61 0.0 0.0 0.00 0.01 0.00 81 1010.3
20260905070018 61 0.0 0.0 0.00 0.12 0.00 79 1010.6
20260905063021 61 0.0 0.0 0.00 0.37 0.00 75 1010.7
20260905060036 62 0.0 0.0 0.00 0.41 0.00 73 1010.8
20260905053015 63 0.0 0.0 0.00 0.41 0.00 71 1011.1
20260905050036 63 0.0 0.0 0.00 0.41 0.00 69 1011.2
20260905043015 64 0.0 0.0 0.00 0.41 0.00 69 1011.2
20260905040015 65 0.0 0.0 0.00 0.41 0.41 67 1011.3
20260905033016 67 0.0 0.0 0.00 0.41 0.41 67 1011.2
20260905030057 68 0.0 0.0 0.00 0.41 0.41 67 1011.1
20260905023022 69 0.0 1.0 0.00 0.41 0.41 63 1011.1
20260905020016 69 0.0 1.0 0.00 0.41 0.41 64 1011.1
20260905013015 70 0.0 1.0 0.00 0.41 0.41 63 1011.1
20260905010015 70 0.0 1.0 0.00 0.41 0.41 62 1011.0
20260905003035 71 0.0 0.0 0.00 0.41 0.41 62 1011.0
20260905000015 72 0.0 0.0 0.00 0.41 0.41 61 1010.6
20260904233015 74 0.0 0.0 0.00 0.41 0.41 59 1010.4
20260904230015 76 0.0 0.0 0.00 0.41 0.41 56 1010.4
20260904223015 79 0.0 1.0 0.00 0.41 0.41 48 1010.3
20260904220037 80 0.0 2.0 0.00 0.41 0.41 45 1010.2
20260904213015 80 0.0 2.0 0.00 0.41 0.41 46 1010.1
20260904210015 81 0.0 3.0 0.00 0.41 0.41 44 1010.3
20260904203017 81 23 1.0 3.0 0.00 0.41 0.41 44 1010.5
20260904200015 82 45 1.0 4.0 0.00 0.41 0.41 42 1010.6
20260904193015 84 45 1.0 4.0 0.00 0.41 0.41 41 1010.7
20260904190017 85 45 1.0 3.0 0.00 0.41 0.41 39 1010.8
20260904183017 84 23 2.0 6.0 0.00 0.41 0.41 41 1011.2
20260904180037 83 23 1.0 5.0 0.00 0.41 0.41 45 1011.3
20260904173017 82 23 1.0 6.0 0.00 0.41 0.41 52 1011.3
20260904170017 80 0 1.0 4.0 0.00 0.41 0.41 53 1011.4
20260904163016 79 23 1.0 5.0 0.00 0.41 0.41 57 1011.5
20260904160017 79 0 1.0 5.0 0.00 0.41 0.41 60 1011.8
20260904153016 77 0 1.0 4.0 0.00 0.41 0.41 62 1012.2
20260904150016 76 23 1.0 3.0 0.00 0.41 0.41 70 1012.5
20260904143016 75 68 1.0 3.0 0.00 0.41 0.41 75 1012.4
20260904140016 75 68 1.0 4.0 0.00 0.41 0.41 76 1012.4
20260904133016 74 0 1.0 4.0 0.00 0.41 0.41 78 1012.3
20260904130016 73 0.0 2.0 0.00 0.41 0.41 82 1012.2
20260904123016 73 0.0 1.0 0.00 0.41 0.41 83 1012.1
20260904120016 71 0.0 1.0 0.00 0.41 0.41 84 1011.8
20260904113016 70 0.0 0.0 0.00 0.41 0.41 84 1011.8
20260904110017 70 0.0 0.0 0.00 0.41 0.41 84 1011.5
20260904103017 69 0.0 0.0 0.00 0.41 0.41 84 1011.2
20260904100016 70 0.0 1.0 0.00 0.41 0.41 84 1011.3
20260904093040 71 0.0 0.0 0.00 0.41 0.41 84 1011.0
20260904090016 71 0.0 0.0 0.00 0.41 0.41 84 1010.9